Home   Weather   Lafayette   Past weeks

Flag for USA Past Weather in Lafayette, Louisiana, USA — Yesterday and Last 2 Weeks

Now
70 °F

Clear.


Feels Like: 65 °F
Forecast: 68 / 77 °F
Wind: 3 mph from North

Location: Lafayette Regional Airport

Current Time: Jan 17, 2017 at 10:40:19 pm

Latest Report: Jan 17, 2017 at 9:53 pm


Visibility: 10 mi

Pressure: 30.11 "Hg

Humidity: 93%

Dew Point: 68 °F

Location of LafayetteLocation

Past Weather in Lafayette — Graph

°F

Lafayette Temperature Yesterday

Maximum temperature yesterday: 79 °F (at 12:53 pm)
Minimum temperature yesterday: 64 °F (at 2:53 am)
Average temperature yesterday: 72 °F

High & Low Weather Summary for the Past Weeks

 TemperatureHumidityPressure
High79 °F (Jan 12, 1:53 pm)100% (Jan 3, 12:41 am)30.76 "Hg (Jan 3, 12:41 am)
Low24 °F (Jan 7, 4:53 am)22% (Jan 8, 1:53 pm)29.84 "Hg (Jan 5, 2:53 pm)
Average60 °F80%30.19 "Hg
* Reported Jan 2 8:53 pm — Jan 17 8:53 pm, Lafayette, Weather by CustomWeather, © 2017

Note: Actual official high and low records may vary slightly from our data, if they occured in-between our weather recording intervals... More about our weather records

Advertising

Lafayette Weather History for the Previous 24 Hours

Scroll right to see more
 ConditionsComfort  
Time TempWeatherWind HumidityBarometerVisibility
8:53 pm
Tue, Jan 17
70 °FPassing clouds.No wind90%30.12 "Hg10 mi
7:53 pm71 °FClear.5 mph90%30.12 "Hg10 mi
6:53 pm72 °FClear.5 mph87%30.11 "Hg10 mi
5:53 pm73 °FClear.6 mph81%30.10 "Hg10 mi
4:53 pm75 °FScattered clouds.8 mph76%30.10 "Hg10 mi
3:53 pm76 °FScattered clouds.9 mph74%30.09 "Hg10 mi
2:53 pm78 °FScattered clouds.14 mph66%30.07 "Hg10 mi
1:53 pm78 °FBroken clouds.14 mph69%30.09 "Hg10 mi
12:53 pm77 °FPartly sunny.15 mph71%30.10 "Hg10 mi
12:04 pm76 °FMostly cloudy.15 mph77%30.11 "Hg10 mi
11:53 am76 °FMostly cloudy.10 mph80%30.11 "Hg10 mi
11:24 am75 °FMostly cloudy.8 mph82%30.14 "Hg10 mi
10:53 am74 °FMostly cloudy.9 mph85%30.14 "Hg6 mi
10:01 am73 °FMostly cloudy.10 mph88%30.14 "Hg7 mi
9:00 am72 °FLow clouds.8 mph91%30.13 "Hg9 mi
8:18 am71 °FFog.5 mph93%30.13 "Hg1 mi
7:59 am70 °FFog.6 mph97%30.12 "Hg1 mi
6:53 am71 °FLow clouds.3 mph93%30.10 "Hg8 mi
5:53 am71 °FLow clouds.7 mph90%30.08 "Hg7 mi
4:53 am71 °FMostly cloudy.8 mph90%30.07 "Hg10 mi
3:53 am71 °FLow clouds.7 mph93%30.07 "Hg8 mi
2:53 am71 °FLow clouds.10 mph93%30.07 "Hg8 mi
1:53 am71 °FFog.10 mph93%30.08 "Hg5 mi
12:53 am71 °FLow clouds.9 mph93%30.07 "Hg8 mi
11:53 pm
Mon, Jan 16
72 °FLow clouds.9 mph91%30.08 "Hg10 mi
11:25 pm73 °FLow clouds.9 mph88%30.09 "Hg10 mi
10:53 pm73 °FMostly cloudy.14 mph88%30.09 "Hg10 mi
Weather by CustomWeather, © 2017

See weather overviewHow to use our weather pages